Location: An Tulaigh
(53.1928°N, 8.1647°W)
Time: 23:37:10
(UTC+00:00)

Cosmos 1470 - Pass Details

Date: 15 May 2026
Orbit: 420 x 430 km, 82.5° (Epoch: 11 June)

Event Time Altitude Azimuth Distance (km) Brightness Sun altitude
Rises 22:43:52 0° 356° (N) 2,391 7.5 -14.3°
Reaches altitude 10° 22:46:04 10° 6° (N) 1,519 6.0 -14.4°
Maximum altitude 22:49:03 31° 72° (ENE) 763 3.5 -14.6°
Enters shadow 22:50:19 23° 113° (ESE) 939 3.6 -14.7°
